Regional Weather Roundup
Issued by NWS Goodland, KS

Home | Current Version | Previous Version | Graphics & Text | Print | Product List | Glossary On
Versions: 1 2 3 4 5 6 7 8 9 10 11 12 13 14 15 16 17 18 19 20 21 22 23 24 25 26 27 28 29 30 31 32 33 34 35 36 37 38 39 40 41 42 43 44 45 46 47 48 49 50
000
ASUS43 KGLD 281759
RWRGLD

GOODLAND FORECAST AREA HOURLY WEATHER ROUNDUP
NATIONAL WEATHER SERVICE GOODLAND KS
1200 PM MDT WED SEP 28 2016

...OFFICIAL OBSERVATIONS...

CITY           SKY/WX    TMP DP  RH WIND       PRES   REMARKS
GOODLAND KS    SUNNY     79  41  25 NE7       30.25F
HILL CITY KS   SUNNY     74  47  38 NE8       30.22F
IMPERIAL NEB   SUNNY     78  41  26 N10       30.25F
MCCOOK NEB     SUNNY     75  44  33 CALM      30.23F
AKRON CO       SUNNY     76  38  25 E8        30.32F
BURLINGTON CO  SUNNY     80  36  20 E7        30.28F
LIMON CO       SUNNY     77  27  15 SE8       30.34F
$$

...UNOFFICIAL OBSERVATIONS...

CITY           SKY/WX    TMP DP  RH WIND       PRES   REMARKS
COLBY KS       SUNNY     77  48  36 N3        30.25F
LENORA KS        N/A     72  32  23 MISG        N/A
NORTON KS      SUNNY     73  36  25 N6        30.21F
SHARON SPRINGS   N/A     79  45  29 NE8         N/A
KIT CARSON CO    N/A     78  42  27 CALM        N/A
$$



USA.gov is the U.S. government's official web portal to all federal, state and local government web resources and services.